CAPE
0 0 0 0 0 0 0 0 0 0 0 0 0 0 0 0 0 0 0 0 0 0 0 25 804 83 84 237 201 67 146 134 198 300 473 548 211 208 217 348 315 695 798 729 776
0 0 0 0 0 0 0 0 0 0 0 0 0 0 0 0 0 0 0 0 0 0 0 0 0 1 5 55 33 66 170 257 346 373 324 397 350 350 285 260 506 613 779 768 789
0 0 0 0 0 0 0 0 0 0 0 0 0 0 0 0 0 0 0 0 0 0 0 0 0 0 1 75 34 122 128 337 413 355 381 431 440 453 507 319 322 733 618 661 893
0 0 0 0 0 0 0 0 0 0 0 0 0 0 0 0 0 0 0 0 0 0 0 0 0 0 17 30 33 121 226 389 419 412 325 29 3 385 387 451 427 545 561 499 473
0 0 0 0 0 0 0 0 0 0 0 0 0 0 0 0 0 0 0 0 0 0 0 0 0 15 27 67 29 135 194 379 460 442 310 130 105 111 291 501 453 552 491 462 440
0 0 0 0 0 0 0 0 0 0 0 0 0 0 0 0 0 0 0 0 0 0 0 0 0 0 27 76 82 100 336 440 548 491 595 526 393 230 419 498 472 491 415 320 431
0 0 0 0 0 0 0 0 0 0 0 0 0 0 0 0 0 0 0 0 0 0 0 0 0 0 18 11 61 64 85 249 458 557 174 108 409 288 376 475 435 488 394 325 489
0 0 0 0 0 0 0 0 0 0 0 0 0 0 0 0 0 0 0 0 0 0 0 0 0 0 0 23 3 61 29 15 148 615 120 0 184 349 375 480 564 628 533 421 435
0 0 0 0 0 0 0 0 0 0 0 0 0 0 0 0 0 0 0 0 0 0 0 0 0 0 0 2 2 7 21 23 294 309 467 424 452 400 447 459 541 646 587 496 432
0 0 0 0 0 0 0 0 0 0 0 0 0 0 0 0 0 0 0 0 0 0 0 0 0 0 0 19 1 0 0 0 43 298 156 614 769 707 639 569 442 472 523 494 468
0 0 0 0 0 0 0 0 0 0 0 0 0 0 0 0 0 0 0 0 0 0 0 0 0 0 0 7 32 93 61 69 145 0 0 5 346 1099 861 706 560 404 384 390 425
0 0 0 0 0 0 0 0 0 0 0 0 0 0 0 0 0 0 0 0 0 0 0 0 0 0 0 21 94 41 47 81 83 1 0 16 80 26 318 837 669 491 424 405 459
0 0 0 0 0 0 0 0 0 0 0 0 0 0 0 0 0 0 0 0 0 0 0 0 0 0 0 8 66 6 2 72 14 45 0 0 43 21 868 973 739 656 501 405 476
0 0 0 0 0 0 0 0 0 0 0 0 0 0 0 0 0 0 0 0 0 0 0 0 0 0 0 0 67 0 14 42 50 1 0 22 0 52 15 519 894 793 799 449 549
0 0 0 0 0 0 0 0 0 0 0 0 0 0 0 0 0 0 0 0 0 0 0 0 0 0 0 8 13 0 20 15 16 0 0 0 23 7 4 104 249 727 940 785 548
0 0 0 0 0 0 0 0 0 0 0 0 0 0 0 0 0 0 0 0 0 0 0 0 0 0 0 0 1 0 0 9 8 0 0 31 27 6 13 20 0 158 307 912 673
0 0 0 0 0 0 0 0 0 0 0 0 0 0 0 0 0 0 0 0 0 0 0 0 0 0 0 0 0 0 0 4 5 5 6 13 49 9 12 5 44 522 828 919 917
0 0 0 0 0 0 0 0 0 0 0 0 0 0 0 0 0 0 0 0 0 0 0 0 0 0 0 0 0 0 0 1 12 0 33 26 3 23 0 60 282 392 844 905 1315
0 0 0 0 0 0 0 0 0 0 0 0 0 0 0 0 0 0 0 0 0 0 0 0 0 0 0 0 0 0 0 0 0 0 0 9 17 0 1 150 430 397 739 890 1408
0 0 0 0 0 0 0 0 0 0 0 0 0 0 0 0 0 0 0 0 0 0 0 0 0 0 0 0 0 0 0 0 0 0 0 0 122 17 9 38 812 597 835 1030 1600
0 0 0 0 0 0 0 0 0 0 0 0 0 0 0 0 0 0 0 0 0 0 0 0 0 0 0 0 0 0 0 0 0 0 0 0 102 245 340 40 435 677 1230 1341 1559
0 0 0 0 0 0 0 0 0 0 0 0 0 0 0 0 0 0 0 0 0 0 0 0 0 0 0 0 0 0 0 0 0 0 0 0 52 326 78 0 0 341 1528 1675 1746
0 0 0 0 0 2 3 0 0 0 0 0 0 0 0 0 0 0 0 0 0 0 0 0 0 0 0 0 0 0 0 0 0 0 0 0 120 100 39 26 1 514 1718 1914 1766
0 14 0 0 0 0 0 0 2 0 0 0 0 0 0 0 0 0 0 2 0 0 0 0 0 0 0 0 0 0 0 0 0 0 0 0 197 305 79 65 283 644 1861 1862 1707
0 8 0 15 6 19 6 5 2 9 0 0 0 0 0 0 0 0 0 0 0 0 0 0 0 0 0 0 0 0 0 0 0 0 0 0 21 432 239 198 1259 1731 1879 1741 1729
0 0 0 0 0 0 0 0 3 39 40 61 45 1 0 0 0 1 130 218 27 1 0 0 0 0 0 0 0 0 0 0 0 0 0 0 0 0 717 1398 1637 1816 1815 1725 1720
0 0 0 0 0 15 32 146 151 180 94 105 59 111 149 24 26 51 48 145 144 73 22 0 0 0 0 0 0 0 0 0 0 0 0 0 0 0 539 1268 1685 2080 2110 1950 1612
CIN
0 0 0 0 0 0 0 0 0 0 0 0 0 0 0 0 0 0 0 0 0 0 0 -66 -129 -130 -53 -7 -7 -18 -21 -31 -26 -3 -3 -8 -48 -57 -32 -2 -5 -17 -13 -8 -7
0 0 0 0 0 0 0 0 0 0 0 0 0 0 0 0 0 0 0 0 0 0 0 0 0 -36 -38 -13 -38 -15 -22 -12 -7 -7 -29 -35 -47 -16 -22 -4 -4 -2 -6 -4 -16
0 0 0 0 0 0 0 0 0 0 0 0 0 0 0 0 0 0 0 0 0 0 0 0 0 0 -4 -20 -23 -4 -18 -11 -16 -5 -17 -19 -4 -54 -6 -10 -3 -3 -2 -2 -20
0 0 0 0 0 0 0 0 0 0 0 0 0 0 0 0 0 0 0 0 0 0 0 0 0 0 -98 -23 -51 -16 -3 -2 -5 -16 -30 -96 -29 -44 -36 -8 -44 -27 -10 -1 -1
0 0 0 0 0 0 0 0 0 0 0 0 0 0 0 0 0 0 0 0 0 0 0 0 0 -25 -29 -14 -102 -19 -4 -13 -18 -18 -27 -41 -52 -63 -79 -48 -67 -64 -32 -8 -3
0 0 0 0 0 0 0 0 0 0 0 0 0 0 0 0 0 0 0 0 0 0 0 0 0 0 -5 -13 -36 -23 -3 -5 -5 -21 -18 -60 -60 -64 -66 -75 -102 -100 -44 -22 -3
0 0 0 0 0 0 0 0 0 0 0 0 0 0 0 0 0 0 0 0 0 0 0 0 0 0 -106 -51 -30 -21 -137 -49 -2 -3 -86 -192 -111 -57 -82 -97 -121 -90 -43 -20 -7
0 0 0 0 0 0 0 0 0 0 0 0 0 0 0 0 0 0 0 0 0 0 0 0 0 0 0 -60 -29 -11 -164 -21 -67 -25 -253 0 -119 -77 -101 -99 -95 -69 -37 -29 -11
0 0 0 0 0 0 0 0 0 0 0 0 0 0 0 0 0 0 0 0 0 0 0 0 0 0 0 -32 -5 -48 -90 -104 -30 -3 -93 -57 -53 -85 -100 -91 -82 -54 -43 -46 -23
0 0 0 0 0 0 0 0 0 0 0 0 0 0 0 0 0 0 0 0 0 0 0 0 0 0 0 -71 -16 0 0 0 -82 -4 -5 -6 -15 -92 -76 -87 -85 -65 -48 -31 -11
0 0 0 0 0 0 0 0 0 0 0 0 0 0 0 0 0 0 0 0 0 0 0 0 0 0 0 -88 -41 -33 -209 -59 -33 -3 0 -2 -5 -39 -63 -62 -81 -75 -45 -41 -26
0 0 0 0 0 0 0 0 0 0 0 0 0 0 0 0 0 0 0 0 0 0 0 0 0 0 0 -52 -7 -6 -3 -3 -12 -1 0 -50 -102 -103 -291 -35 -40 -38 -44 -10 -5
0 0 0 0 0 0 0 0 0 0 0 0 0 0 0 0 0 0 0 0 0 0 0 0 0 0 0 -72 -7 -19 -1 -23 -24 -7 0 0 -21 -96 -33 -18 -25 -3 -4 -3 -2
0 0 0 0 0 0 0 0 0 0 0 0 0 0 0 0 0 0 0 0 0 0 0 0 0 -2 0 0 -9 -1 -8 -15 -22 -4 0 -29 0 -75 -59 -33 -16 -2 -5 -2 -5
0 0 0 0 0 0 0 0 0 0 0 0 0 0 0 0 0 0 0 0 0 0 0 0 0 0 0 -6 -5 0 -8 -17 -21 -4 0 0 -10 -207 -31 -144 -141 -35 -9 -2 -11
0 0 0 0 0 0 0 0 0 0 0 0 0 0 0 0 0 0 0 0 0 0 0 0 0 0 0 0 -2 0 0 -3 -2 0 0 -22 -33 -177 -138 -45 0 -192 -171 -3 -13
0 0 0 0 0 0 0 0 0 0 0 0 0 0 0 0 0 0 0 0 0 0 0 0 0 0 0 0 0 0 0 -5 -3 -4 -11 -84 -71 -163 -87 -16 -222 -118 -22 -4 -12
0 0 0 0 0 0 0 0 0 0 0 0 0 0 0 0 0 0 0 0 0 0 0 0 0 0 0 0 0 0 0 -2 -5 0 -8 -107 -15 -64 0 -133 -91 -9 -12 -3 -26
0 0 0 0 0 0 0 0 0 0 0 0 0 0 0 0 0 0 0 0 0 0 0 0 0 0 0 0 0 0 0 0 0 0 0 -6 -81 -14 -130 -41 -5 -12 -9 -14 -22
0 0 0 0 0 0 0 0 0 0 0 0 0 0 0 0 0 0 0 0 0 0 0 0 0 0 0 0 0 0 0 0 0 0 0 0 -8 -84 -171 -5 -15 -8 -12 -16 -15
0 0 0 0 0 0 0 0 0 0 0 0 0 0 0 0 0 0 0 0 0 0 0 0 0 0 0 0 0 0 0 0 0 0 0 0 -55 -177 -200 -168 -104 -71 -18 -34 -44
0 0 0 0 0 0 0 0 0 0 0 0 0 0 0 0 0 0 0 0 0 0 0 0 0 0 0 0 0 0 0 0 0 0 0 0 -15 -96 -117 0 -9 -105 -24 -50 -59
0 0 0 0 0 -1 -1 0 0 0 0 0 0 0 0 0 0 0 0 0 0 0 0 0 0 0 0 0 0 0 0 0 0 0 0 0 -54 -132 -200 -247 -43 -84 -49 -95 -95
0 -147 0 0 0 0 0 0 -4 -2 0 0 0 0 0 0 0 0 0 -2 0 0 0 0 0 0 0 0 0 0 0 0 0 0 0 0 -30 -87 -219 -278 -134 -154 -13 -92 -112
0 -71 0 -57 -12 -3 -2 -2 -2 -2 0 0 0 0 0 0 0 0 0 0 0 0 0 0 0 0 0 0 0 0 0 0 0 0 0 0 -3 -22 -67 -92 -35 -60 -79 -96 -96
0 0 0 0 0 -1 0 0 -1 -5 -7 -5 -12 0 0 0 0 -4 -25 -16 -7 -1 0 0 0 0 0 0 0 0 0 0 0 0 0 0 0 0 -12 -21 -42 -103 -118 -127 -133
0 0 0 0 0 -6 -23 -5 -4 -7 -4 -30 -12 -6 -18 -5 -9 -17 -44 -61 -21 -15 -5 0 0 0 0 0 0 0 0 0 0 0 0 0 0 0 -16 -28 -52 -94 -131 -124 -191
Wind_Speed
20 21 21 22 22 22 21 21 20 19 18 18 18 19 19 20 21 21 20 18 18 19 16 17 17 13 13 12 12 8 30 32 31 28 24 24 27 27 27 25 19 26 28 29 28
22 22 23 23 23 23 23 23 23 21 20 19 19 19 20 20 22 25 24 21 21 20 17 14 12 16 11 6 20 25 26 30 31 31 32 29 27 26 27 25 28 29 29 31 28
23 24 24 25 25 25 25 25 25 24 22 21 20 20 20 20 22 25 27 24 23 21 20 14 12 11 14 17 22 26 26 26 29 28 29 28 26 23 21 25 25 26 28 28 29
25 26 26 27 27 27 27 27 27 26 24 23 22 21 21 20 8 14 25 25 25 23 21 17 13 14 16 16 17 20 25 25 26 27 27 29 28 26 27 26 26 28 29 29 27
27 27 28 28 29 29 29 29 28 27 26 24 23 22 19 22 25 14 24 26 26 24 22 16 10 11 14 16 11 21 22 23 24 25 27 29 29 28 28 28 28 28 28 27 27
28 29 29 30 30 30 30 30 29 29 27 26 24 23 20 6 13 11 22 28 27 26 23 17 12 14 14 18 16 15 19 21 22 23 26 25 21 25 25 27 28 28 28 26 25
30 30 31 31 32 32 32 32 30 30 28 26 24 22 25 29 20 22 25 28 29 27 25 19 17 17 17 12 11 16 16 10 21 20 21 23 18 22 24 25 27 27 26 25 24
31 31 31 32 33 34 34 33 31 30 28 25 23 22 20 19 24 28 28 29 30 29 27 22 20 20 17 16 14 17 18 7 16 18 18 20 19 22 23 23 24 24 24 23 23
32 32 32 33 33 34 35 34 33 29 26 24 21 18 26 17 25 32 32 28 29 28 28 25 23 21 21 13 13 17 20 11 17 16 15 11 15 20 22 21 21 21 21 20 20
32 33 34 34 34 33 34 33 25 25 23 23 26 23 27 23 20 17 24 27 31 26 23 20 21 13 15 16 5 3 19 19 20 13 11 9 13 17 20 20 20 20 19 18 17
31 32 33 34 34 32 28 22 21 19 21 23 19 20 16 14 15 18 24 22 28 22 17 16 14 12 15 22 10 8 11 9 9 11 10 5 11 13 15 17 18 18 18 17 16
32 32 32 33 33 31 24 22 19 24 29 32 35 31 28 19 24 19 16 13 9 11 10 15 17 17 20 18 26 16 6 3 16 12 11 18 7 11 12 13 13 15 16 16 16
32 32 32 32 30 24 23 21 23 26 26 32 23 27 25 25 28 24 13 12 13 11 19 16 17 12 15 28 11 27 23 14 14 11 17 12 10 8 12 15 9 11 14 15 15
32 32 31 32 22 23 20 20 23 23 26 26 15 23 21 20 31 29 11 15 19 16 13 15 24 24 3 24 26 1 22 28 29 28 28 3 26 14 18 10 9 11 13 15 14
31 31 30 26 25 19 21 23 23 21 26 8 10 11 12 17 21 17 27 16 20 14 14 15 19 15 11 21 11 24 32 15 27 33 28 25 15 15 21 16 18 17 19 15 14
31 30 29 17 14 21 25 24 21 20 26 15 13 18 20 18 30 16 16 18 23 27 31 23 39 16 20 34 28 32 32 33 33 29 26 25 22 17 9 17 12 23 24 15 15
31 30 26 24 14 22 23 20 16 20 15 18 20 18 18 19 23 22 18 22 23 23 24 21 12 39 15 28 9 21 20 25 19 21 13 17 19 17 20 32 18 19 17 15 16
28 28 14 9 21 23 21 15 19 17 28 17 19 19 23 22 18 24 20 27 22 24 22 20 20 21 16 30 28 17 33 26 25 24 16 22 17 21 20 21 24 11 12 14 16
23 14 11 13 7 17 16 16 14 23 23 21 26 27 30 27 29 21 23 29 28 20 33 28 25 23 14 13 10 34 33 23 35 34 33 13 19 10 7 20 7 9 12 13 16
13 10 12 12 9 11 16 24 28 27 22 22 27 30 29 23 25 27 27 27 30 27 26 43 39 37 10 12 11 12 35 34 8 26 28 24 7 12 15 4 11 14 12 12 14
15 14 15 13 9 9 15 21 26 26 21 25 31 32 28 29 25 28 32 28 25 32 28 36 42 38 31 14 15 15 30 40 38 36 31 25 20 3 8 10 9 10 7 12 10
13 16 14 13 9 8 15 19 27 28 19 23 29 29 28 26 26 26 31 26 25 26 32 28 36 40 37 23 13 23 36 27 37 37 35 36 23 2 3 6 6 5 14 10 9
14 17 16 13 11 13 7 14 25 26 25 29 25 28 31 29 28 29 30 17 13 22 27 23 32 39 43 31 17 30 24 42 33 26 36 37 17 4 4 12 6 15 11 9 10
15 16 15 12 8 4 22 25 19 17 25 31 29 28 30 31 30 32 29 21 17 24 27 28 33 32 39 30 27 19 24 33 40 39 26 29 14 5 2 3 15 17 15 10 9
15 19 24 13 20 10 9 25 24 19 15 21 29 32 32 32 31 33 31 30 19 23 27 30 36 35 35 36 38 36 30 21 30 44 41 39 27 3 5 2 16 13 9 9 7
22 20 24 7 5 9 7 9 9 20 22 25 28 31 31 32 33 29 29 27 33 20 22 26 34 33 37 37 37 37 33 31 22 20 39 43 42 35 9 11 3 5 9 9 8
26 22 17 14 12 15 14 13 8 22 18 22 28 30 29 22 27 29 31 31 31 23 25 23 27 29 36 32 34 40 36 32 31 30 24 22 36 35 19 7 9 7 5 6 7
Wind_Direction
306 305 303 301 300 297 295 293 288 281 273 266 262 257 254 254 248 200 190 186 185 164 189 176 177 190 162 157 128 192 59 64 71 80 89 92 78 85 91 92 109 92 105 112 111
305 304 303 302 299 298 295 293 290 284 277 270 265 261 259 260 228 208 200 187 197 178 172 186 226 184 163 178 91 62 46 53 61 68 75 81 90 94 88 86 85 88 95 119 114
305 304 302 302 300 298 295 294 291 287 280 273 268 262 258 257 228 194 197 193 198 187 194 206 209 203 215 101 51 58 65 64 59 68 73 84 87 107 107 93 98 96 104 117 123
303 302 301 300 299 298 295 293 291 287 282 275 271 265 258 229 31 268 214 200 202 200 203 215 221 214 173 112 81 70 67 73 71 67 74 74 85 90 90 95 98 107 114 121 128
302 299 298 298 297 296 295 292 290 286 282 276 272 271 267 231 214 278 222 210 199 193 196 216 236 216 211 30 66 73 82 74 79 73 62 67 79 83 87 94 98 107 119 123 131
304 300 297 296 295 294 294 292 288 285 282 277 275 273 271 209 285 290 226 202 189 184 199 209 244 226 208 60 106 82 98 94 95 75 77 72 94 85 90 96 101 108 119 126 128
305 302 298 295 293 292 291 290 286 283 282 282 283 286 261 211 258 248 231 196 198 197 202 214 224 225 234 166 86 110 4 301 106 89 68 29 91 86 102 105 109 122 123 121 126
306 303 300 296 293 291 289 286 283 280 280 285 290 289 282 274 257 237 228 211 214 211 210 227 235 228 214 236 81 164 33 66 178 74 93 70 99 101 113 114 117 120 125 121 125
306 305 301 298 294 290 288 283 280 278 281 283 291 292 276 289 269 226 215 197 198 199 209 215 223 210 224 168 152 306 313 171 139 81 97 84 121 99 124 122 120 123 120 122 122
304 304 302 300 296 293 288 280 294 288 285 280 275 283 273 275 276 270 244 248 231 189 190 186 191 178 191 175 67 9 2 218 209 89 77 89 79 105 126 127 122 126 122 122 120
302 299 301 300 297 295 301 302 298 294 280 272 293 272 302 289 283 271 258 260 250 266 179 175 176 177 182 213 28 116 134 144 162 31 38 147 29 70 124 134 120 125 122 125 124
301 298 297 296 296 290 298 298 307 297 282 270 263 266 270 282 273 273 266 264 248 192 183 182 187 188 203 239 251 324 171 135 331 9 15 16 113 36 185 151 122 118 123 131 129
300 298 297 294 287 296 297 302 301 299 287 276 270 264 265 270 267 267 254 254 257 249 189 192 188 180 197 224 288 273 220 337 355 198 339 351 2 74 109 142 103 116 137 139 131
299 297 296 296 303 306 304 310 303 305 287 280 268 270 263 263 266 260 248 257 260 263 201 205 200 206 246 210 258 346 274 279 278 300 252 10 260 330 323 24 23 141 144 151 138
296 295 291 300 292 307 312 306 301 294 280 292 265 296 271 254 281 254 257 254 258 257 267 207 200 203 217 202 204 214 247 337 289 269 251 245 325 352 233 342 239 195 171 156 138
292 290 291 321 325 303 296 299 294 277 271 277 282 281 268 260 259 275 246 256 261 264 265 275 246 214 207 225 269 263 235 247 266 258 239 307 317 346 349 159 126 180 198 153 135
290 287 295 292 322 302 296 298 298 273 286 280 278 274 269 266 258 260 248 250 249 258 263 273 234 238 267 210 217 203 208 222 215 219 275 336 325 339 338 225 189 164 155 140 129
287 279 336 336 293 291 292 299 288 291 265 298 285 280 267 265 265 256 255 257 250 254 267 264 266 262 277 267 271 201 216 214 221 224 312 310 326 339 11 215 172 96 105 124 121
282 27 22 352 353 297 296 286 288 281 297 296 276 269 267 267 264 259 253 259 258 241 257 264 269 274 210 269 227 222 218 208 242 244 244 257 322 22 72 309 301 44 93 108 123
49 66 26 19 8 326 296 275 268 297 307 297 275 276 266 265 264 261 258 264 260 255 253 245 260 252 266 260 254 232 225 239 220 224 237 243 314 327 325 275 349 298 79 95 110
76 61 38 37 37 341 297 286 278 289 302 285 271 278 267 274 260 258 260 263 266 257 256 253 250 257 267 247 267 275 255 244 254 258 247 231 316 359 128 124 58 17 75 100 102
74 40 68 79 30 355 310 295 284 285 310 295 272 273 272 280 273 268 264 266 268 259 258 255 256 255 259 273 265 272 259 270 262 245 241 257 306 94 158 349 353 32 125 108 105
50 40 72 110 31 345 339 319 295 294 290 279 283 273 268 274 272 267 265 299 298 259 260 263 258 255 252 264 265 271 274 247 227 223 232 251 309 296 38 15 305 152 133 116 109
48 40 46 84 151 90 318 309 316 310 290 276 281 275 272 267 268 266 266 283 284 271 273 272 262 258 254 264 271 267 276 263 244 260 280 219 291 318 295 218 165 161 145 119 112
45 12 345 31 336 36 26 315 316 317 311 297 275 269 268 268 265 265 267 274 283 282 269 263 257 260 261 261 263 269 270 270 269 248 263 259 276 288 309 170 148 124 124 121 118
2 4 338 34 52 39 53 28 3 328 307 295 282 271 268 265 262 266 283 276 268 283 274 265 259 263 263 263 264 267 271 273 272 277 268 257 261 268 15 141 185 165 150 144 130
356 355 7 7 22 8 2 8 13 328 330 299 272 272 271 274 276 285 273 270 277 267 276 265 264 263 262 269 266 265 265 275 277 279 282 280 273 272 282 265 222 193 177 167 151